Regional Weather Roundup
Issued by NWS Northern Indiana

Home | Current Version | Previous Version | Graphics & Text | Print | Product List | Glossary On
Versions: 1 2 3 4 5 6 7 8 9 10 11 12 13 14 15 16 17 18 19 20 21 22 23 24 25 26 27 28 29 30 31 32 33 34 35 36 37 38 39 40 41 42 43 44 45 46 47 48 49 50
000
ASUS43 KIWX 191710
RWRIWX

KIWX WEATHER ROUNDUP
NATIONAL WEATHER SERVICE NORTHERN INDIANA
100 PM EDT SUN APR 19 2015

NOTE: "FAIR" INDICATES FEW OR NO CLOUDS BELOW 12,000 FEET WITH NO
SIGNIFICANT WEATHER AND/OR OBSTRUCTIONS TO VISIBILITY.

* THESE STATIONS ARE NOT UNDER NWS QUALITY CONTROL. THEY ALSO MAY NOT
  REPORT WEATHER SUCH AS PRECIPITATION OR FOG.

INZ001>027-191800-
NORTHERN INDIANA

CITY           SKY/WX    TMP DP  RH WIND       PRES   REMARKS
GARY*          PTSUNNY   73  27  17 SE22      29.70F
VALPARAISO     PTSUNNY   70  39  32 SE17G24   29.72F
MICHIGAN CITY* PTSUNNY   70  30  23 E14G21    29.72F
LAPORTE*       PTSUNNY   72  38  29 E20       29.73F
KNOX*          PTSUNNY   68   7   9 SE15G22   29.71F
SOUTH BEND     PTSUNNY   70  35  27 SE24      29.74F
ELKHART*       PTSUNNY   68  32  26 E16G28    29.75F
GOSHEN         PTSUNNY   65  42  43 E17       29.75F
MONTICELLO*    LGT RAIN  60  45  57 E9        29.70F
LOGANSPORT*    RAIN      59  46  63 E14       29.72F
ROCHESTER*     CLOUDY    64  41  42 SE17      29.73F
WARSAW*        CLOUDY    64  41  42 E13       29.75F
ANGOLA*        SUNNY     63  37  39 SE17      29.79F
FORT WAYNE     CLOUDY    63  43  48 E16       29.76F
HUNTINGTON*    CLOUDY    62  37  40 E12G18    29.75F
PERU/GRISSOM   LGT RAIN  60  47  63 E12       29.71F
MARION*        LGT RAIN  56  47  72 E10       29.73F

$$
INZ028>050-191800-
CENTRAL INDIANA

CITY           SKY/WX    TMP DP  RH WIND       PRES   REMARKS
LAFAYETTE      LGT RAIN  56  49  77 E13       29.69F
KOKOMO*        CLOUDY    57  48  72 E13       29.72F
MUNCIE*        LGT RAIN  59  53  80 E12       29.72F
INDIANAPOLIS   LGT RAIN  56  53  90 E13       29.65F FOG

$$
MIZ043>046-050>051-056>058-064>065-071>073-077>080-191800-
SOUTHWEST LOWER MICHIGAN

CITY           SKY/WX    TMP DP  RH WIND       PRES   REMARKS
BATTLE CREEK   MOSUNNY   67  32  27 E14       29.81F
BENTON HARBOR  MOSUNNY   71  38  29 E22G30    29.74F
COLDWATER*     PTSUNNY   66  33  28 E16G24    29.79F
HILLSDALE*     MOSUNNY   65  34  31 E21       29.82F
HOLLAND        SUNNY     69  36  29 E16G23    29.79F
GRAND RAPIDS   PTSUNNY   64  32  30 E20       29.83F
KALAMAZOO      MOSUNNY   69  32  25 E8G18     29.79F
STURGIS*       PTSUNNY   66  36  32 E5G22     29.77F
THREE RIVERS*  FAIR      69  33  26 E17G23    29.78F

$$
OHZ001>008-015>018-024>025-191800-
NORTHWEST OHIO

CITY           SKY/WX    TMP DP  RH WIND       PRES   REMARKS
WAUSEON*       PTSUNNY   57  36  44 E22       29.83F
DEFIANCE       PTSUNNY   61  39  44 E14       29.81F
FINDLAY        PTSUNNY   70  45  40 NE13      29.78F
TOLEDO EXPRESS PTSUNNY   52  36  54 E20G25    29.85F
TOLEDO METCALF MOSUNNY   51  37  58 E16G25    29.87F
LIMA           CLOUDY    73  52  47 SE13      29.77F

$$
AND FOR LAKE MICHIGAN COASTAL AND OPEN LAKE BUOY OBSERVATIONS

STATION/POSITION TEMP    WIND        PRES    VSBY  WAVE
                 AIR SEA DIR/SP/G                  HT/PER
                 (F)     (DEG/KT/KT) (MB)    (MI)  (FT/S)
CALUMET HARBOR    54      20/  7/ 10   N/A
MICHIGAN CITY     68      90/ 16/ 20   N/A
BURNS HARBOR      70     110/ 16/ 24 1006.8S
SAINT JOSEPH      74     100/  3/ 10 1007.5F
MICHIGAN CITY     60 44  130/ 14/ 19   N/A           3/ 4

$$
&&



USA.gov is the U.S. government's official web portal to all federal, state and local government web resources and services.